Regional Weather Roundup
Issued by NWS

Home | Current Version | Previous Version | Text Only | Print | Product List | Glossary Off
Versions: 1 2 3 4 5 6 7 8 9 10 11 12 13 14 15 16 17 18 19 20 21 22 23 24 25 26 27 28 29 30 31 32 33 34 35 36 37 38 39 40 41 42 43 44 45 46 47 48 49 50

000
ASUS43 KOAX 080102
RWRNE

WEATHER ROUNDUP FOR NEBRASKA
NATIONAL WEATHER SERVICE OMAHA NE
700 PM CST WED DEC 07 2016

NOTES: SATELLITE DATA IS BEING USED TO AUGMENT CLOUD COVER ABOVE
       12000 FEET.
       "FAIR" INDICATES FEW OR NO CLOUDS BELOW 12,000 FEET WITH NO
       SIGNIFICANT WEATHER AND/OR OBSTRUCTIONS TO VISIBILITY.

  * THESE STATIONS DO NOT REPORT WEATHER SUCH AS RAIN...SNOW OR FOG.

NEZ001>004-019>022-054>056-080200-
NEBRASKA PANHANDLE

CITY           SKY/WX    TMP DP  RH WIND       PRES   REMARKS
SCOTTSBLUFF    CLEAR      7  -4  60 NW14      30.40R WCI -10
ALLIANCE       CLEAR      1  -5  75 W12       30.36R WCI -16
CHADRON        CLEAR      5  -5  63 W16       30.44R WCI -14
KIMBALL        CLEAR     -2  -6  82 NW9       30.33R WCI -17
SIDNEY         CLEAR      3  -4  72 NW12      30.36R WCI -13
$$

NEZ057>060-069>072-079>082-080200-
SOUTHWEST NEBRASKA

CITY           SKY/WX    TMP DP  RH WIND       PRES   REMARKS
NORTH PLATTE   CLEAR      9   1  70 NW8       30.42R WCI  -3
IMPERIAL       PTCLDY     7   1  76 W7        30.42R WCI  -5
LEXINGTON      CLEAR     14   4  65 NW8       30.43R WCI   3
MCCOOK         PTCLDY    12   5  73 NW9       30.45R WCI   0
OGALLALA       CLEAR      6   0  76 NW7       30.41R WCI  -6
$$

NEZ005>010-023>029-035>040-094-080200-
NORTH CENTRAL NEBRASKA

CITY           SKY/WX    TMP DP  RH WIND       PRES   REMARKS
VALENTINE      CLEAR      9  -2  61 NW10      30.42R WCI  -5
AINSWORTH      CLEAR     11   2  67 NW16G23   30.40R WCI  -6
BROKEN BOW     CLEAR     14   2  58 NW15      30.40R WCI  -1
O`NEILL        CLEAR     13   3  64 NW16G23   30.40R WCI  -3
ORD            CLEAR     15   1  53 NW18      30.41R WCI  -2
THEDFORD       CLEAR     10   1  67 NW7       30.41R WCI  -1
$$

NEZ041-046>049-061>064-073>077-083>087-080200-
SOUTH CENTRAL NEBRASKA

CITY           SKY/WX    TMP DP  RH WIND       PRES   REMARKS
GRAND ISLAND   CLEAR     14   3  61 NW8       30.42R WCI   3
AURORA         CLEAR     15   4  61 NW7       30.41R WCI   5
HASTINGS       CLEAR     17   3  54 NW10      30.43R WCI   5
HEBRON         PTCLDY    19   7  60 NW6       30.44R WCI  10
HOLDREGE       PTCLDY    13   3  66 NW6       30.42R WCI   3
KEARNEY *      CLEAR     16   0  48 NW6       30.42R WCI   7
YORK           CLEAR     18   5  57 NW9       30.41R WCI   6
$$

NEZ011>018-030>034-042>045-080200-
NORTHEAST NEBRASKA

CITY           SKY/WX    TMP DP  RH WIND       PRES   REMARKS
NORFOLK        CLEAR     16   2  54 NW18G25   30.37R WCI   0
ALBION         CLEAR     15   3  58 NW15      30.39S WCI   0
BLAIR          CLEAR     19   8  60 W12       30.37R WCI   7
FREMONT        CLEAR     17   7  64 W9        30.40R WCI   6
TEKAMAH        CLEAR     18   6  59 W14       30.39R WCI   4
WAYNE          CLEAR     16   5  62 NW14      30.37R WCI   1
$$

NEZ050>053-065>068-078-088>093-080200-
SOUTHEAST NEBRASKA

CITY           SKY/WX    TMP DP  RH WIND       PRES   REMARKS
LINCOLN        CLEAR     20   6  55 NW10      30.43R WCI   9
OMAHA EPPLEY   CLEAR     20   7  57 NW13      30.39R WCI   7
BEATRICE       CLEAR     17   8  67 W6        30.42R WCI   9
FALLS CITY     CLEAR     19  10  68 NW7       30.41R WCI  10
NEBRASKA CITY  CLEAR     19   6  55 W8        30.39R WCI   9
PLATTSMOUTH    PTCLDY    21   5  51 W14       30.38R WCI   8
$$

NEZ044-045-051>053-067-080200-
OMAHA AREA

CITY           SKY/WX    TMP DP  RH WIND       PRES   REMARKS
OMAHA EPPLEY   CLEAR     20   7  57 NW13      30.39R WCI   7
BLAIR          CLEAR     19   8  60 W12       30.37R WCI   7
FREMONT        CLEAR     17   7  64 W9        30.40R WCI   6
MILLARD        CLEAR     22   7  51 NW12      30.40R WCI  11
OFFUTT AFB     CLEAR     21   7  55 NW15      30.39R WCI   7
PLATTSMOUTH    PTCLDY    21   5  51 W14       30.38R WCI   8
WAHOO          FAIR      20   6  55 NW15      30.40R WCI   6
$$




USA.gov is the U.S. government's official web portal to all federal, state and local government web resources and services.